Regional Weather Roundup
Issued by NWS

Home | Current Version | Previous Version | Graphics & Text | Print | Product List | Glossary On
Versions: 1 2 3 4 5 6 7 8 9 10 11 12 13 14 15 16 17 18 19 20 21 22 23 24 25 26 27 28 29 30 31 32 33 34 35 36 37 38 39 40 41 42 43 44 45 46 47 48 49 50
279
ASUS44 KMEG 271700
RWRTN
TENNESSEE HOURLY STATE WEATHER ROUNDUP
NATIONAL WEATHER SERVICE MEMPHIS TN
1200 PM CDT FRI MAY 27 2016

TNZ002-004-019-021-049-052-054-088>092-271800-
WEST TENNESSEE

CITY           SKY/WX    TMP DP  RH WIND       PRES   REMARKS
MEMPHIS INTL   CLOUDY    80  68  66 S14G23    29.95S
NWS MEMPHIS      N/A     79 N/A N/A MISG        N/A
JACKSON        CLOUDY    78  68  71 S10       29.97S
DYERSBURG      CLOUDY    79  66  65 S10G25    29.94S
UNION CITY     SUNNY     79  72  78 S16       29.94S
PARIS          SUNNY     77  66  69 S15       29.99F
LEXINGTON      SUNNY     81  66  61 S12       29.99F
$$

TNZ008-025-027-028-033-062-065-066-271800-
NORTH MIDDLE TENNESSEE

CITY           SKY/WX    TMP DP  RH WIND       PRES   REMARKS
NASHVILLE      PTSUNNY   86  61  42 SW14G23   30.04F
CLARKSVILLE    MOSUNNY   82  66  58 S21       30.00F
COOKEVILLE     MOSUNNY   84  70  61 SW7       30.07F
CROSSVILLE     CLOUDY    79  63  57 VRB6      30.14F
$$

TNZ061-075-076-078-094-096-097-271800-
SOUTH MIDDLE TENNESSEE

CITY           SKY/WX    TMP DP  RH WIND       PRES   REMARKS
TULLAHOMA      MOSUNNY   82  63  51 SW12      30.09S
WINCHESTER     MOSUNNY   84  63  48 S10       30.08F
MCMINNVILLE    MOSUNNY   86  68  54 SW7       30.08F
COLUMBIA       SUNNY     84  66  54 S12       30.03S
SHELBYVILLE    PTSUNNY   88  64  45 S18       30.06F
$$

TNZ017-018-042-046-047-271800-
NORTHEAST TENNESSEE

CITY           SKY/WX    TMP DP  RH WIND       PRES   REMARKS
TRI CITIES     MOSUNNY   82  63  52 W6        30.13F
$$

TNZ012-013-036-069-073-074-271800-
CENTRAL EAST TENNESSEE

CITY           SKY/WX    TMP DP  RH WIND       PRES   REMARKS
KNOXVILLE      PTSUNNY   84  65  52 W7        30.09F
OAK RIDGE      MOSUNNY   82  64  54 S6        30.12S
GATLINBURG     SUNNY     81  64  57 E3        30.10F
$$

TNZ083-085-099-271800-
SOUTHEAST TENNESSEE

CITY           SKY/WX    TMP DP  RH WIND       PRES   REMARKS
CHATTANOOGA    PTSUNNY   83  64  52 S8        30.08F
$$

SKY/WX REPORTED AS FAIR MEANS FEW OR NO CLOUDS BELOW
12 THOUSAND FEET.





USA.gov is the U.S. government's official web portal to all federal, state and local government web resources and services.